www.pogodaiklimat.ru

Погода и климат >> Архив погоды >> Иран >> Abadan


ПОГОДА в Abadan

  • Прогноз погоды в Abadan
  • Монитор погоды в Abadan
  • Климат города

АРХИВ ПОГОДЫ в Abadan

Время (UTC), дата Ветер
(напр.,м/с)
 
Видим.   Явления Облачность Т
(С)
Тd
(С)
f
(%)
Тe
(С)
Тes
(С)
Комфортность P
(гПа)
Po
(гПа)
Тmin
(С)
Tmax
(С)
R
(мм)
R24
(мм)
S
(см)
06 9.12 ЮВ 1 7000 м мгла ясно +20.8 +13.3 62 +24 +28 комфорт 1020.2 1019.4
09 9.12 штиль 0 10 км 1/0
[Cc]
+25.2 +9.9 38 +26 +36 жарко 1019.3 1018.5
12 9.12 СВ 3 10 км 5/5 1200 м
[Sc diur, vesp]
+24.0 +12.3 48 +26 +27 жарко 1018.2 1017.4
15 9.12 СВ 1 10 км 6/3 1200 м
[Sc diur, vesp Ac trans]
+21.7 +11.1 51 +24 +24 комфорт 1018.6 1017.8 +26.1
18 9.12 СВ 1 10 км 6/1 1200 м
[Sc diur, vesp Ac trans]
+19.3 +12.6 65 +22 +22 комфорт 1019.4 1018.5
21 9.12 СВ 1 10 км 8/3 1200 м
[Sc diur, vesp Ac trans]
+17.4 +13.3 77 +18 +18 1018.5 1017.7
00 10.12 З 1 10 км 8/4 1200 м
[Sc Ac trans]
+15.2 +12.5 84 +16 +16 1018.5 1017.7
03 10.12 СЗ 1 7000 м дымка 6/1 1200 м
[Sc Ac trans]
+14.5 +12.7 89 +15 +15 1018.1 1017.3 +14.4
06 10.12 С 1 8000 м мгла ясно +17.9 +11.7 67 +19 +23 1019.3 1018.5
09 10.12 С 4 10 км ясно +22.6 +9.0 42 +24 +29 комфорт 1017.8 1017.0
12 10.12 С 4 10 км ясно +23.2 +9.6 42 +25 +26 комфорт 1016.8 1016.0
15 10.12 СЗ 3 10 км ясно +20.4 +15.4 73 +23 +23 комфорт 1017.4 1016.6 +23.5
18 10.12 СЗ 3 10 км ясно +18.8 +12.2 65 +20 +20 1019.0 1018.2
21 10.12 З 2 10 км ясно +15.9 +10.6 71 +16 +16 1019.4 1018.2
00 11.12 СЗ 2 10 км ясно +14.3 +11.2 82 +14 +14 1019.6 1018.8
03 11.12 СЗ 2 6000 м дымка ясно +13.8 +10.9 83 +13 +13 1020.6 1019.7 +13.7
06 11.12 СЗ 3 5000 м дымка ясно +16.1 +13.1 82 +16 +18 1022.1 1021.2
09 11.12 СЗ 5 8000 м мгла ясно +20.5 +11.2 55 +22 +26 комфорт 1021.1 1020.2
12 11.12 СЗ 5 12 км ясно +22.2 +8.8 42 +24 +25 комфорт 1019.7 1018.9
15 11.12 СЗ 2 10 км ясно +19.4 +12.7 65 +21 +21 комфорт 1020.8 1019.9 +22.3
18 11.12 СЗ 3 10 км ясно +16.7 +11.2 70 +16 +16 1021.5 1020.7
21 11.12 СЗ 3 10 км ясно +14.4 +10.2 76 +14 +14 1021.6 1020.6
00 12.12 З 2 6000 м дымка ясно +12.1 +9.5 84 +11 +11 1021.5 1020.7
03 12.12 З 2 5000 м дымка ясно +10.1 +8.2 88 +9 +9 1021.8 1020.9 +10.1
06 12.12 СЗ 3 2500 м мгла ясно +16.0 +11.3 74 +16 +18 1022.9 1022.1
09 12.12 СЗ 4 7000 м мгла ясно +20.6 +8.8 47 +22 +27 комфорт 1021.4 1020.6
12 12.12 С 4 10 км ясно +21.9 +7.4 39 +23 +24 комфорт 1020.3 1019.5
15 12.12 СЗ 1 10 км ясно +18.6 +8.0 50 +20 +20 1020.7 1019.8 +22.1
18 12.12 штиль 0 10 км ясно +13.7 +8.5 71 +13 +13 1020.8 1020.0
21 12.12 З 2 7000 м дымка ясно +11.7 +8.6 81 +11 +11 1021.1 1020.3
00 13.12 штиль 0 7000 м дымка ясно +9.8 +7.6 86 +9 +9 1020.9 1020.1
03 13.12 штиль 0 4000 м дымка ясно +10.0 +8.5 90 +9 +9 1021.4 1020.5 +9.8
06 13.12 штиль 0 3000 м мгла ясно +14.6 +10.4 76 +14 +19 1023.4 1022.6
09 13.12 штиль 0 8000 м мгла ясно +21.4 +12.0 55 +24 +34 комфорт 1022.5 1021.7
12 13.12 С 3 10 км ясно +22.6 +12.3 52 +25 +27 комфорт 1020.8 1020.0
15 13.12 В 1 10 км ясно +18.6 +11.9 65 +20 +20 1021.7 1020.9 +22.8
18 13.12 штиль 0 10 км ясно +15.6 +11.5 77 +15 +15 1022.7 1021.9
21 13.12 З 2 10 км ясно +14.2 +10.6 79 +14 +14 1023.2 1022.2
00 14.12 СЗ 1 10 км ясно +13.8 +10.8 82 +14 +14 1023.3 1022.4
03 14.12 СЗ 1 5000 м дымка 3/0
[Ac trans]
+13.5 +12.2 92 +14 +14 1023.4 1022.6 +13.5
06 14.12 штиль 0 6000 м мгла 4/0
[Ac trans]
+17.8 +10.7 63 +18 +21 1024.9 1024.0
09 14.12 СЗ 3 10 км 4/0
[Ac trans]
+22.7 +11.6 49 +25 +30 комфорт 1023.4 1022.6
12 14.12 С 3 10 км 4/4 1500 м
[Sc]
+23.0 +12.9 53 +26 +27 жарко 1022.6 1021.8
15 14.12 С 3 7000 м мгла ясно +20.3 +13.0 63 +23 +23 комфорт 1023.6 1022.8 +23.8
18 14.12 СЗ 4 10 км ясно +17.9 +11.9 68 +18 +18 1024.4 1023.6
21 14.12 СЗ 4 10 км ясно +15.8 +10.8 72 +15 +15 1024.0 1022.9
00 15.12 СЗ 4 10 км ясно +14.7 +10.2 74 +14 +14 1023.5 1022.6
03 15.12 З 3 6000 м мгла ясно +12.6 +8.6 77 +11 +11 1024.2 1023.4 +12.6
06 15.12 СЗ 6 7000 м мгла ясно +14.0 +7.3 64 +12 +13 1025.9 1025.1
09 15.12 СЗ 5 7000 м мгла ясно +18.2 +7.2 49 +18 +22 1024.3 1023.4
12 15.12 СЗ 6 10 км ясно +20.8 +2.1 29 +21 +22 комфорт 1022.7 1021.9
15 15.12 З 2 10 км ясно +16.7 +6.2 50 +17 +17 1024.0 1023.2 +21.1
18 15.12 СЗ 2 10 км ясно +13.7 +7.7 67 +13 +13 1024.7 1023.8
21 15.12 З 2 10 км ясно +10.8 +6.2 73 +10 +10 1024.1
00 16.12 З 2 10 км ясно +8.9 +6.0 82 +7 +7 1024.8 1023.9
03 16.12 штиль 0 10 км ясно +8.2 +5.2 81 +7 +7 1025.2 1024.3 +8.2

 

Местоположение метеостанции Abadan (Иран): широта 30.37 долгота 48.25 высота над уровнем моря 6 м.

В архиве по умолчанию представлена погода в Abadan за последнюю неделю. Архивные данные за месяц целиком и за предыдущие месяцы, начиная с января 2011 года, Вы можете получить, выбрав интересующий диапазон дат из раскрывающегося списка и нажав кнопку "Ввод!".


*Определитесь, кто Вы:
робот инопланетянин человек

Внимание! Время в таблицах - всемирное. Для получения местного времени необходимо прибавить поправку, которая в Abadan равна 3.5 ч.

Смотрите также архив погоды в соседних городах и на ближайших метеорологических станциях:

Погода в Basrah Airport (Ирак) (48 км)
Погода в Fao (Ирак) (50 км)
Погода в Basrah (Ирак) (50 км)
Погода в Abdaly (Кувейт) (62 км)
Погода в Bubiyan (Кувейт) (68 км)
Погода в Sabriyah (Кувейт) (79 км)
Погода в Failaka Island (Кувейт) (100 км)
Погода в Mitribah (Кувейт) (104 км)
Погода в Jal Aliyah (Кувейт) (106 км)
Погода в Ahwaz (Иран) (114 км)

Пояснения к столбцам:

Ветер - указаны скорость ветра в м/с - средняя за 10 мин, порывы в срок и между сроками (в фигурных скобках) и направление, откуда дует ветер: С - северный, СВ - северо-восточный, В - восточный, ЮВ - юго-восточный, Ю - южный, ЮЗ - юго-западный, З - западный, СЗ - северо-западный.
Видимость - горизонтальная дальность видимости в метрах или километрах. При видимости от 1 до 10 км при отсутствии осадков обычно наблюдается дымка, при ухудшении видимости до 1 км и менее - туман. В сухую погоду видимость может ухудшаться дымом, пылью или мглою.
Явления - указаны атмосферные явления, наблюдавшиеся в срок или в последний час перед сроком; фигурными скобками обозначены явления, наблюдавшиеся между сроками (за 1-3 часа до срока); квадратными скобками обозначены град или гололедные отложения с указанием их диаметра в мм.
Облачность - указаны через наклонную черту общая и нижняя облачность в баллах и высота нижней границы облаков в метрах; квадратными скобками обозначены формы облаков: Ci - перистые, Cs - перисто-слоистые, Cc - перисто-кучевые, Ac - высококучевые, As - высокослоистые, Sc - слоисто-кучевые, Ns - слоисто-дождевые, Cu - кучевые, Cb - кучево-дождевые. Подробнее классификацию облаков см. в Атласе облаков (PDF).
T - Температура воздуха - температура, измеренная на высоте 2 м над землей.
Td - Температура точки росы - температура, при понижении до которой содержащийся в воздухе водяной пар достигнет насыщения.
f - Относительная влажность воздуха - влажноcть воздуха, измеренная на высоте 2 м над землей.
Te - Эффективная температура - температура, которую ощущает одетый по сезону человек в тени. Характеристика душности погоды. При расчете учитывается влияние влажности воздуха и скорости ветра на теплоощущения человека.
Tes - Эффективная температура на солнце - температура, которую ощущает человек, с поправкой на солнечный нагрев. Характеристика знойности погоды. Зависит от высоты солнца над горизонтом, облачности и скорости ветра. Ночью, в пасмурную погоду, а также при ветре 12 м/с и более поправка равна нулю.
P - Атмосферное давление - приведенное к уровню моря атмосферное давление.
Po - Атмосферное давление - измеренное на уровне метеостанции атмосферное давление.
Tmin - Минимальная температура - минимум температуры воздуха на высоте 2 м над землей.
Tmax - Максимальная температура - максимум температуры воздуха на высоте 2 м над землей.
R - Количество осадков - Количество выпавших осадков за период времени, мм. При наведении курсора мыши на число - период времени, за который выпало указанное количество осадков.
R24 - Количество осадков - Количество выпавших осадков за 24 часа, мм.
S - Снежный покров - Высота снежного покрова, см. При наведении курсора мыши на число - состояние снежного покрова и степень покрытия местности в баллах.